CPA423 RCKH-VHHX

Flight info

Callsign CPA423
Flight time 0h 53m
Altitude 30000
Route PARAS2A PARAS T7 WP521 G581 MAGOG
Aircraft A21N/M-VGDW/C

Departure

Time 2026-04-27 20:59
Airport Kaohsiung International Airport (RCKH)

Arrival

Time 2026-04-27 21:53
Airport Hong Kong International Airport Kai Tak (VHHX)
Time Latitude Longitude Altitude Speed Heading
2026-04-27 20:51 22.57332 120.34225 38 ft 0 kts 271°
2026-04-27 20:55 22.57332 120.34242 37 ft 2 kts 273°
2026-04-27 20:55 22.57331 120.34260 35 ft 2 kts 274°
2026-04-27 20:56 22.57330 120.34278 36 ft 2 kts 276°
2026-04-27 20:56 22.57328 120.34296 37 ft 2 kts 282°
2026-04-27 20:56 22.57323 120.34313 38 ft 2 kts 300°
2026-04-27 20:56 22.57311 120.34324 37 ft 2 kts 350°
2026-04-27 20:57 22.57306 120.34325 38 ft 0 kts 355°
2026-04-27 20:58 22.57380 120.34307 39 ft 20 kts 320°
2026-04-27 20:58 22.57420 120.34142 39 ft 21 kts 306°
2026-04-27 20:58 22.57556 120.34123 39 ft 22 kts
2026-04-27 20:58 22.57697 120.34141 39 ft 19 kts 31°
2026-04-27 20:59 22.57725 120.34460 39 ft 81 kts 93°
2026-04-27 20:59 22.57700 120.35363 67 ft 154 kts 89°
2026-04-27 20:59 22.57670 120.36685 452 ft 197 kts 91°
2026-04-27 20:59 22.57306 120.38314 650 ft 248 kts 122°
2026-04-27 21:00 22.56080 120.39626 1438 ft 259 kts 151°
2026-04-27 21:00 22.54357 120.40107 2194 ft 260 kts 181°
2026-04-27 21:00 22.52613 120.39581 2937 ft 266 kts 211°
2026-04-27 21:00 22.51304 120.38178 3674 ft 269 kts 237°
2026-04-27 21:01 22.50386 120.36403 4385 ft 271 kts 241°
2026-04-27 21:01 22.49518 120.34592 5088 ft 271 kts 244°
2026-04-27 21:01 22.49096 120.32606 5807 ft 276 kts 265°
2026-04-27 21:01 22.49041 120.30516 6513 ft 279 kts 268°
2026-04-27 21:02 22.49048 120.28421 7189 ft 278 kts 269°
2026-04-27 21:02 22.49065 120.25777 8061 ft 282 kts 268°
2026-04-27 21:02 22.49051 120.23648 8780 ft 283 kts 266°
2026-04-27 21:02 22.48984 120.21520 9505 ft 285 kts 266°
2026-04-27 21:03 22.48887 120.19299 10208 ft 306 kts 265°
2026-04-27 21:03 22.48768 120.16910 10833 ft 330 kts 265°
2026-04-27 21:03 22.48637 120.14341 11459 ft 354 kts 265°
2026-04-27 21:03 22.48513 120.11932 12020 ft 373 kts 265°
2026-04-27 21:04 22.48368 120.09089 12663 ft 394 kts 265°
2026-04-27 21:04 22.48215 120.06055 13320 ft 414 kts 265°
2026-04-27 21:04 22.48055 120.02875 13964 ft 432 kts 265°
2026-04-27 21:04 22.47889 119.99566 14552 ft 449 kts 265°
2026-04-27 21:05 22.47717 119.96137 15154 ft 464 kts 265°
2026-04-27 21:05 22.47539 119.92601 15776 ft 478 kts 265°
2026-04-27 21:05 22.47379 119.89398 16334 ft 489 kts 265°
2026-04-27 21:05 22.47192 119.85680 16977 ft 501 kts 265°
2026-04-27 21:06 22.47003 119.81935 17621 ft 511 kts 265°
2026-04-27 21:06 22.46806 119.78070 18284 ft 520 kts 265°
2026-04-27 21:06 22.46605 119.74147 18859 ft 522 kts 266°
2026-04-27 21:06 22.46404 119.70238 19444 ft 520 kts 266°
2026-04-27 21:07 22.46202 119.66349 20041 ft 517 kts 266°
2026-04-27 21:07 22.45999 119.62474 20654 ft 515 kts 266°
2026-04-27 21:07 22.45796 119.58624 21285 ft 512 kts 266°
2026-04-27 21:07 22.45592 119.54789 21930 ft 509 kts 266°
2026-04-27 21:08 22.45388 119.50981 22584 ft 507 kts 266°
2026-04-27 21:08 22.45188 119.47241 23247 ft 504 kts 266°
2026-04-27 21:08 22.44984 119.43468 23859 ft 502 kts 266°
2026-04-27 21:08 22.44781 119.39710 24435 ft 500 kts 266°
2026-04-27 21:09 22.44578 119.35964 25023 ft 498 kts 266°
2026-04-27 21:09 22.44375 119.32231 25626 ft 497 kts 266°
2026-04-27 21:09 22.44170 119.28508 26233 ft 496 kts 265°
2026-04-27 21:09 22.43966 119.24802 26872 ft 494 kts 265°
2026-04-27 21:10 22.43830 119.22342 27284 ft 493 kts 265°
2026-04-27 21:10 22.43556 119.17408 28159 ft 491 kts 265°
2026-04-27 21:10 22.43354 119.13780 28822 ft 489 kts 265°
2026-04-27 21:10 22.43149 119.10114 29450 ft 489 kts 265°
2026-04-27 21:11 22.43009 119.07637 29678 ft 489 kts 265°
2026-04-27 21:11 22.42733 119.02774 29861 ft 490 kts 265°
2026-04-27 21:11 22.42594 119.00340 29894 ft 490 kts 265°
2026-04-27 21:12 22.42172 118.92989 29923 ft 490 kts 265°
2026-04-27 21:12 22.41677 118.84446 29932 ft 490 kts 265°
2026-04-27 21:13 22.41317 118.78291 29936 ft 490 kts 265°
2026-04-27 21:13 22.40890 118.70997 29937 ft 490 kts 265°
2026-04-27 21:14 22.40457 118.63671 29939 ft 488 kts 265°
2026-04-27 21:14 22.39951 118.55179 29936 ft 487 kts 265°
2026-04-27 21:15 22.39512 118.47867 29934 ft 487 kts 265°
2026-04-27 21:15 22.39146 118.41800 29937 ft 487 kts 266°
2026-04-27 21:16 22.38702 118.34500 29935 ft 487 kts 266°
2026-04-27 21:16 22.38182 118.26025 29935 ft 486 kts 266°
2026-04-27 21:17 22.37804 118.19923 29932 ft 486 kts 266°
2026-04-27 21:17 22.37354 118.12691 29936 ft 485 kts 266°
2026-04-27 21:18 22.36899 118.05420 29934 ft 485 kts 266°
2026-04-27 21:18 22.36443 117.98148 29933 ft 485 kts 266°
2026-04-27 21:19 22.35984 117.90877 29933 ft 485 kts 266°
2026-04-27 21:19 22.35514 117.83658 29931 ft 485 kts 266°
2026-04-27 21:20 22.34818 117.72752 29932 ft 485 kts 266°
2026-04-27 21:20 22.34353 117.65480 29934 ft 485 kts 266°
2026-04-27 21:21 22.33881 117.58215 29935 ft 485 kts 266°
2026-04-27 21:21 22.33420 117.50993 29935 ft 485 kts 268°
2026-04-27 21:22 22.33190 117.43715 29938 ft 485 kts 269°
2026-04-27 21:22 22.33055 117.36434 29933 ft 485 kts 269°
2026-04-27 21:23 22.32935 117.29151 29935 ft 485 kts 269°
2026-04-27 21:23 22.32812 117.21916 29929 ft 485 kts 270°
2026-04-27 21:24 22.32683 117.14630 29934 ft 485 kts 269°
2026-04-27 21:24 22.32547 117.07342 29933 ft 485 kts 269°
2026-04-27 21:25 22.32407 117.00054 29934 ft 486 kts 269°
2026-04-27 21:25 22.32262 116.92812 29931 ft 486 kts 269°
2026-04-27 21:26 22.32111 116.85520 29931 ft 486 kts 269°
2026-04-27 21:26 22.31956 116.78226 29933 ft 486 kts 269°
2026-04-27 21:27 22.31798 116.70929 29935 ft 486 kts 269°
2026-04-27 21:27 22.31637 116.63678 29931 ft 486 kts 269°
2026-04-27 21:28 22.31472 116.56374 29929 ft 487 kts 269°
2026-04-27 21:28 22.31304 116.49066 29928 ft 487 kts 269°
2026-04-27 21:29 22.31141 116.42177 29931 ft 487 kts 269°
2026-04-27 21:29 22.30967 116.34916 29927 ft 487 kts 269°
2026-04-27 21:30 22.30789 116.27600 29927 ft 488 kts 269°
2026-04-27 21:30 22.30606 116.20273 29925 ft 488 kts 269°
2026-04-27 21:31 22.30420 116.12945 29924 ft 488 kts 269°
2026-04-27 21:31 22.30244 116.06101 29926 ft 489 kts 269°
2026-04-27 21:32 22.30052 115.98764 29925 ft 489 kts 269°
2026-04-27 21:32 22.29856 115.91420 29924 ft 489 kts 269°
2026-04-27 21:33 22.29643 115.84071 29925 ft 490 kts 269°
2026-04-27 21:33 22.29399 115.76769 29922 ft 490 kts 269°
2026-04-27 21:34 22.29136 115.69417 29922 ft 490 kts 268°
2026-04-27 21:34 22.28877 115.62515 29924 ft 491 kts 268°
2026-04-27 21:35 22.28587 115.55154 29927 ft 491 kts 268°
2026-04-27 21:35 22.28445 115.51450 29045 ft 496 kts 269°
2026-04-27 21:35 22.28308 115.47726 28146 ft 497 kts 268°
2026-04-27 21:36 22.28172 115.43997 27274 ft 496 kts 268°
2026-04-27 21:36 22.28039 115.40336 26432 ft 491 kts 268°
2026-04-27 21:36 22.27904 115.36696 25623 ft 480 kts 268°
2026-04-27 21:36 22.27768 115.33129 24825 ft 471 kts 268°
2026-04-27 21:37 22.27633 115.29619 24045 ft 466 kts 268°
2026-04-27 21:37 22.27494 115.26138 23251 ft 462 kts 267°
2026-04-27 21:37 22.27355 115.22697 22352 ft 456 kts 267°
2026-04-27 21:37 22.27215 115.19301 21477 ft 449 kts 267°
2026-04-27 21:38 22.26954 115.15976 20948 ft 441 kts 263°
2026-04-27 21:38 22.26542 115.12684 20566 ft 443 kts 261°
2026-04-27 21:38 22.26061 115.09444 20189 ft 442 kts 261°
2026-04-27 21:38 22.25533 115.06190 19817 ft 439 kts 260°
2026-04-27 21:39 22.25049 115.03360 19491 ft 437 kts 259°
2026-04-27 21:39 22.24480 115.00143 19123 ft 436 kts 259°
2026-04-27 21:39 22.23890 114.96941 18753 ft 434 kts 257°
2026-04-27 21:39 22.22978 114.93848 18375 ft 432 kts 250°
2026-04-27 21:40 22.21867 114.90850 17964 ft 429 kts 248°
2026-04-27 21:40 22.20680 114.87904 17526 ft 427 kts 246°
2026-04-27 21:40 22.19475 114.85040 17114 ft 423 kts 245°
2026-04-27 21:40 22.18236 114.82171 16717 ft 421 kts 245°
2026-04-27 21:41 22.16991 114.79316 16321 ft 420 kts 245°
2026-04-27 21:41 22.15743 114.76480 15926 ft 417 kts 245°
2026-04-27 21:41 22.14500 114.73671 15569 ft 414 kts 245°
2026-04-27 21:41 22.13399 114.71196 15254 ft 413 kts 245°
2026-04-27 21:42 22.12158 114.68412 14900 ft 411 kts 244°
2026-04-27 21:42 22.10935 114.65677 14554 ft 408 kts 244°
2026-04-27 21:42 22.09795 114.63132 14253 ft 407 kts 244°
2026-04-27 21:42 22.08565 114.60390 13936 ft 406 kts 244°
2026-04-27 21:43 22.07340 114.57658 13606 ft 404 kts 244°
2026-04-27 21:43 22.06121 114.54940 13252 ft 401 kts 245°
2026-04-27 21:43 22.05291 114.52082 12893 ft 401 kts 262°
2026-04-27 21:43 22.05391 114.49089 12547 ft 402 kts 280°
2026-04-27 21:44 22.06244 114.46221 12204 ft 402 kts 289°
2026-04-27 21:44 22.07281 114.43469 11858 ft 401 kts 291°
2026-04-27 21:44 22.08385 114.40713 11522 ft 400 kts 292°
2026-04-27 21:44 22.09329 114.38416 11240 ft 399 kts 292°
2026-04-27 21:45 22.10281 114.36123 10961 ft 397 kts 292°
2026-04-27 21:45 22.11416 114.33404 10631 ft 397 kts 292°
2026-04-27 21:45 22.12546 114.30707 10306 ft 388 kts 292°
2026-04-27 21:45 22.13627 114.28132 10004 ft 366 kts 292°
2026-04-27 21:46 22.14649 114.25700 9717 ft 347 kts 292°
2026-04-27 21:46 22.15605 114.23425 9436 ft 330 kts 292°
2026-04-27 21:46 22.16529 114.21225 9160 ft 314 kts 292°
2026-04-27 21:46 22.17410 114.19123 8899 ft 300 kts 292°
2026-04-27 21:47 22.18251 114.17110 8664 ft 288 kts 292°
2026-04-27 21:47 22.19066 114.15157 8446 ft 285 kts 292°
2026-04-27 21:47 22.19878 114.13198 8224 ft 286 kts 292°
2026-04-27 21:47 22.20685 114.11248 8002 ft 283 kts 291°
2026-04-27 21:48 22.21487 114.09307 7785 ft 284 kts 291°
2026-04-27 21:48 22.22291 114.07359 7559 ft 284 kts 291°
2026-04-27 21:48 22.23188 114.05486 7005 ft 293 kts 306°
2026-04-27 21:48 22.24767 114.04034 6194 ft 307 kts 332°
2026-04-27 21:49 22.26840 114.03415 5340 ft 312 kts 357°
2026-04-27 21:49 22.28883 114.03779 4559 ft 288 kts 23°
2026-04-27 21:49 22.30430 114.04953 3876 ft 258 kts 51°
2026-04-27 21:49 22.31377 114.06481 3317 ft 237 kts 65°
2026-04-27 21:50 22.32022 114.08059 2800 ft 222 kts 73°
2026-04-27 21:50 22.32454 114.09606 2334 ft 209 kts 79°
2026-04-27 21:50 22.32728 114.11080 1910 ft 190 kts 83°
2026-04-27 21:50 22.32879 114.12369 1685 ft 165 kts 85°
2026-04-27 21:51 22.32944 114.13632 1078 ft 169 kts 88°
2026-04-27 21:51 22.33003 114.14871 730 ft 160 kts 87°
2026-04-27 21:51 22.33063 114.15994 528 ft 140 kts 87°
2026-04-27 21:51 22.33105 114.17030 535 ft 139 kts 89°
2026-04-27 21:52 22.33052 114.18059 434 ft 139 kts 101°
2026-04-27 21:52 22.32711 114.19035 214 ft 143 kts 127°
2026-04-27 21:52 22.32039 114.19793 43 ft 135 kts 130°
2026-04-27 21:52 22.31529 114.20375 38 ft 79 kts 133°
2026-04-27 21:53 22.31270 114.20677 38 ft 12 kts 112°
2026-04-27 21:53 22.31276 114.20702 38 ft 16 kts 62°
2026-04-27 21:53 22.31411 114.20661 37 ft 38 kts 313°
2026-04-27 21:53 22.31584 114.20466 37 ft 33 kts 314°
2026-04-27 21:54 22.31745 114.20284 38 ft 33 kts 314°
2026-04-27 21:54 22.31898 114.20115 38 ft 30 kts 315°
2026-04-27 21:54 22.32034 114.19966 38 ft 27 kts 313°
2026-04-27 21:54 22.32175 114.19806 38 ft 29 kts 315°
2026-04-27 21:55 22.32299 114.19668 38 ft 23 kts 315°
2026-04-27 21:55 22.32452 114.19524 38 ft 29 kts 323°
2026-04-27 21:55 22.32603 114.19416 39 ft 23 kts 306°
2026-04-27 21:55 22.32659 114.19342 37 ft 0 kts 313°